Location: Larrial
(48.2758°N, 4.5331°W)
Time: 22:12:02
(UTC+00:00)

AAUSAT CUBESAT 2 - Pass Details

Date: 29 November 2021
Orbit: 571 x 586 km, 97.5° (Epoch: 19 January)

Event Time Altitude Azimuth Distance (km) Brightness Sun altitude
Rises 17:30:36 0° 201° (SSW) 2,772 ? -10.2°
Reaches altitude 10° 17:33:10 10° 217° (SW) 1,878 ? -10.6°
Maximum altitude 17:36:17 21° 268° (W) 1,309 ? -11.1°
Drops below altitude 10° 17:39:26 10° 318° (NW) 1,887 ? -11.6°
Sets 17:42:01 0° 335° (NNW) 2,791 ? -12.0°
